Location: Unspecified
(48.8656°N, 0.0000°E)
Time: 23:15:37
(UTC+00:00)

Transit 2A Rocket - Pass Details

Date: 21 June 2019
Orbit: 588 x 915 km, 66.7° (Epoch: 22 July)

Event Time Altitude Azimuth Distance (km) Brightness Sun altitude
Rises 18:09:04 0° 325° (NW) 3,366 9.2 16.3°
Reaches altitude 10° 18:11:41 10° 330° (NNW) 2,379 8.4 15.9°
Maximum altitude 18:17:01 53° 47° (NE) 910 5.4 15.0°
Drops below altitude 10° 18:21:49 10° 125° (SE) 2,151 6.8 14.3°
Sets 18:24:05 0° 130° (SE) 3,015 7.5 13.9°
